Location: La Brionne
(46.1728°N, 1.7849°E)
Time: 18:46:58
(UTC+00:00)

USA 215 - Pass Details

Date: 02 November 2021
Orbit: 1099 x 1109 km, 123.0° (Epoch: 20 November)

Event Time Altitude Azimuth Distance (km) Brightness Sun altitude
Exits shadow 17:51:08 14° 57° (ENE) 2,669 4.7 -13.3°
Maximum altitude 17:56:50 65° 137° (SE) 1,202 3.3 -14.2°
Drops below altitude 10° 18:03:20 10° 219° (SW) 2,957 6.2 -15.4°
Sets 18:05:50 0° 223° (SW) 3,913 6.9 -15.8°
